[[{"header":{"parameterUnit":"m.s-1","parameterCategory":1,"la1":30.2991,"la2":30.254,"lo1":-89.0895,"lo2":-89.0444,"dy":0.0017,"dx":0.0017,"nx":28,"ny":28,"refTime":"2024-04-01T03:00:00:Z","depth":0,"parameterNumber":2,"parameterNumberName":"U-component_of_WINDS"},"data":[0,0,0,0,0,0,0,0,0,0,0,0,0,0,0,0,0,0,0,0,0,0,0,0,0,0,0,0,0,0,0,0,0,0,0,0,0,0,0,0,0,0,0,0,0,0,0,0,0,0,0,0,0,0,0,0,0,0,-1.2165,-1.2166,0,-1.2175,-1.2175,-1.2175,-1.2156,-1.2155,-1.2154,-1.2154,-1.2164,-1.2165,-1.2166,0,0,0,0,0,0,0,0,0,0,0,0,0,-1.2132,-1.2133,-1.2165,-1.2166,-1.2166,-1.2175,-1.2175,-1.2175,-1.2156,-1.2155,-1.2154,-1.2154,-1.2164,-1.2165,-1.2166,0,0,0,0,0,0,0,0,0,0,0,0,0,-1.2145,-1.2133,-1.2165,-1.2157,-1.2156,-1.2175,-1.2175,-1.2175,-1.2156,-1.2155,-1.2154,-1.2153,-1.2164,-1.2165,-1.2166,-1.2193,0,0,-1.217,-1.2171,0,0,0,0,0,0,0,0,-1.2144,-1.2146,-1.2158,-1.2158,-1.2157,-1.2163,-1.2167,-1.2181,-1.2156,-1.2156,-1.2154,-1.2153,-1.2165,-1.2166,-1.217,-1.2194,-1.2194,-1.2171,-1.2171,-1.2172,-1.2172,0,0,0,0,0,0,0,-1.2143,-1.2145,-1.2169,-1.2158,-1.2158,-1.2153,-1.2154,-1.217,-1.2166,-1.2156,-1.2155,-1.2156,-1.2164,-1.2169,-1.217,-1.2195,-1.217,-1.2172,-1.2172,-1.2173,-1.2241,-1.2242,0,0,0,0,0,0,-1.2143,-1.2145,-1.2169,-1.2169,-1.2148,-1.2155,-1.2156,-1.2162,-1.2166,-1.2165,-1.2157,-1.2155,-1.2167,-1.2168,-1.217,-1.2202,-1.2172,-1.2173,-1.2174,-1.224,-1.2241,-1.2243,0,0,0,0,0,0,-1.2143,-1.2146,-1.2169,-1.2157,-1.2159,-1.2156,-1.2164,-1.2163,-1.2167,-1.2166,-1.2165,-1.2162,-1.2166,-1.2168,-1.2188,-1.2202,-1.2174,-1.2175,-1.2239,-1.2241,-1.2242,-1.2265,0,0,0,0,0,0,-1.2142,-1.2145,-1.2155,-1.2157,-1.216,-1.2185,-1.2165,-1.2164,-1.2169,-1.2167,-1.2171,-1.217,-1.2166,-1.2186,-1.2189,-1.2203,-1.2176,-1.2238,-1.224,-1.2242,-1.2263,-1.2267,-1.2271,0,0,0,0,0,-1.2141,-1.2162,-1.2156,-1.2159,-1.2172,-1.2186,-1.2188,-1.2182,-1.217,-1.218,-1.218,-1.217,-1.22,-1.2188,-1.2191,-1.2206,-1.2237,-1.2239,-1.2241,-1.2261,-1.2266,-1.2271,0,0,0,0,0,0,-1.2162,-1.2162,-1.2155,-1.2178,-1.2182,-1.2183,-1.2195,-1.2188,-1.2196,-1.2193,-1.2186,-1.2187,-1.2207,-1.2209,-1.2196,-1.2232,-1.2217,-1.222,-1.223,-1.2235,-1.2239,-1.2238,-1.2177,0,0,0,0,0,-1.2169,-1.218,-1.218,-1.2199,-1.2202,-1.2198,-1.2204,-1.2199,-1.2204,-1.2206,-1.2206,-1.2211,-1.2222,-1.2229,-1.2238,-1.2264,-1.2264,-1.2275,-1.2279,-1.2282,-1.2285,-1.2298,-1.2303,-1.225,-1.225,-1.225,0,0,-1.2184,-1.2186,-1.2193,-1.2204,-1.2206,-1.2218,-1.22,-1.2213,-1.2222,-1.2208,-1.2225,-1.2227,-1.2232,-1.2254,-1.2264,-1.2256,-1.23,-1.2285,-1.2288,-1.2289,-1.2301,-1.2306,-1.231,-1.2252,-1.2251,-1.2251,0,0,-1.2218,-1.222,-1.2236,-1.224,-1.2244,-1.2242,-1.2246,-1.2248,-1.2248,-1.2266,-1.2255,-1.2266,-1.2284,-1.2288,-1.2292,-1.2328,-1.2319,-1.2331,-1.2351,-1.2364,-1.2368,-1.2372,-1.2384,-1.2388,-1.2334,-1.2334,-1.2334,0,-1.2236,-1.2252,-1.2246,-1.226,-1.2265,-1.2252,-1.2269,-1.2272,-1.228,-1.2284,-1.2275,-1.2298,-1.23,-1.2323,-1.2332,-1.2336,-1.234,-1.233,-1.2368,-1.2371,-1.2375,-1.2386,-1.2391,-1.2335,-1.2335,-1.2335,-1.2335,0,-1.2274,-1.2286,-1.2299,-1.2306,-1.2313,-1.2328,-1.2324,-1.2332,-1.2326,-1.2325,-1.2344,-1.2347,-1.2356,-1.2362,-1.2357,-1.2384,-1.2379,-1.2369,-1.2353,-1.2381,-1.2392,-1.2396,-1.2337,-1.2337,-1.2337,-1.2336,0,0,-1.232,-1.2324,-1.2328,-1.2331,-1.2336,-1.2345,-1.236,-1.2369,-1.2375,-1.2382,-1.2394,-1.241,-1.2401,-1.2406,-1.2402,-1.2413,-1.244,-1.2402,-1.2402,-1.2408,-1.247,-1.2476,-1.2481,-1.2435,-1.2436,-1.2437,-1.2469,0,-1.2353,-1.2377,-1.2372,-1.2397,-1.2407,-1.2396,-1.2409,-1.2413,-1.2413,-1.2422,-1.2422,-1.2433,-1.2421,-1.2424,-1.2435,-1.2435,-1.2452,-1.2432,-1.2446,-1.2447,-1.2444,-1.2486,-1.2493,-1.2523,-1.2473,-1.2474,-1.2474,0,-1.2393,-1.24,-1.2425,-1.2428,-1.2432,-1.2444,-1.2452,-1.2461,-1.2466,-1.2465,-1.2471,-1.2464,-1.2479,-1.2464,-1.2485,-1.2471,-1.2477,-1.2478,-1.2479,-1.2479,-1.2461,-1.2487,-1.2533,-1.2537,-1.2481,-1.248,-1.248,0,-1.2423,-1.2439,-1.2456,-1.2459,-1.2462,-1.2471,-1.2473,-1.2477,-1.2482,-1.249,-1.2493,-1.2503,-1.2508,-1.2515,-1.2512,-1.2501,-1.2533,-1.2518,-1.2532,-1.2533,-1.2539,-1.2538,-1.2585,-1.2544,-1.2544,-1.2544,-1.2544,0,-1.2459,-1.2475,-1.2469,-1.248,-1.2497,-1.2491,-1.2509,-1.251,-1.2513,-1.2524,-1.2515,-1.2526,-1.2521,-1.2531,-1.2529,-1.2546,-1.2549,-1.2548,-1.2547,-1.2548,-1.2548,-1.255,-1.2548,-1.2545,-1.2545,-1.2545,-1.2545,0,-1.2494,-1.2492,-1.2509,-1.2511,-1.2512,-1.2525,-1.2526,-1.2536,-1.2535,-1.2549,-1.2552,-1.2551,-1.2562,-1.2559,-1.2572,-1.2571,-1.2592,-1.2589,-1.259,-1.2589,-1.2604,-1.2602,-1.2653,-1.2659,-1.2615,-1.2616,-1.2616,0,-1.2517,-1.2529,-1.2532,-1.2538,-1.254,-1.255,-1.2556,-1.2551,-1.2558,-1.2564,-1.2574,-1.2584,-1.2592,-1.2611,-1.2612,-1.2621,-1.2618,-1.2635,-1.2619,-1.262,-1.2617,-1.2616,-1.2617,-1.2638,-1.2639,-1.2639,-1.2639,0,-1.2557,-1.2555,-1.2563,-1.2571,-1.2578,-1.2584,-1.259,-1.2596,-1.2591,-1.2599,-1.261,-1.2617,-1.263,-1.264,-1.2649,-1.2652,-1.2645,-1.2645,-1.2648,-1.2649,-1.2649,-1.2648,-1.2597,-1.2643,-1.2643,-1.2642,-1.2642,-1.2642,-1.2586,-1.2595,-1.2599,-1.2609,-1.2612,-1.2618,-1.2627,-1.2627,-1.2636,-1.2645,-1.2643,-1.2655,-1.266,-1.2672,-1.2675,-1.2686,-1.2679,-1.2685,-1.2686,-1.2687,-1.2688,-1.2648,-1.2687,-1.2687,-1.2687,-1.2687,-1.2687,0,-1.2624,-1.2626,-1.2635,-1.2643,-1.265,-1.2643,-1.2649,-1.2656,-1.2667,-1.2672,-1.268,-1.2693,-1.2703,-1.2705,-1.2715,-1.2723,-1.272,-1.2725,-1.2724,-1.2725,-1.2694,-1.2689,-1.2727,-1.2727,-1.2727,-1.2727,-1.2727,-1.2727,-1.2645,-1.2661,-1.2659,-1.2677,-1.2679,-1.2691,-1.2695,-1.27,-1.2703,-1.2718,-1.2726,-1.2727,-1.2731,-1.2741,-1.275,-1.275,-1.2754,-1.2761,-1.276,-1.2731,-1.2727,-1.2723,-1.2718,-1.2762,-1.2762,-1.2789,-1.2789,-1.2789]},{"header":{"parameterUnit":"m.s-1","parameterCategory":1,"la1":30.2991,"la2":30.254,"lo1":-89.0895,"lo2":-89.0444,"dy":0.0017,"dx":0.0017,"nx":28,"ny":28,"refTime":"2024-04-01T03:00:00:Z","depth":0,"parameterNumber":3,"parameterNumberName":"V-component_of_WINDS"},"data":[0,0,0,0,0,0,0,0,0,0,0,0,0,0,0,0,0,0,0,0,0,0,0,0,0,0,0,0,0,0,0,0,0,0,0,0,0,0,0,0,0,0,0,0,0,0,0,0,0,0,0,0,0,0,0,0,0,0,3.4475,3.4476,0,3.4513,3.4513,3.4514,3.4516,3.4515,3.4515,3.4514,3.4551,3.4552,3.4553,0,0,0,0,0,0,0,0,0,0,0,0,0,3.4402,3.4404,3.4475,3.4476,3.4476,3.4513,3.4513,3.4514,3.4516,3.4515,3.4515,3.4514,3.455,3.4552,3.4553,0,0,0,0,0,0,0,0,0,0,0,0,0,3.4436,3.4404,3.4475,3.4482,3.4482,3.4513,3.4513,3.4514,3.4516,3.4515,3.4515,3.4514,3.455,3.4552,3.4554,3.4579,0,0,3.456,3.4561,0,0,0,0,0,0,0,0,3.4434,3.4439,3.448,3.4481,3.4482,3.4509,3.4501,3.4536,3.4516,3.4503,3.4514,3.4514,3.4537,3.454,3.4548,3.4581,3.4582,3.456,3.4561,3.4562,3.4563,0,0,0,0,0,0,0,3.4432,3.4437,3.449,3.4481,3.4482,3.4482,3.4486,3.4507,3.4523,3.4504,3.4504,3.4509,3.4538,3.4547,3.4549,3.4583,3.456,3.4562,3.4563,3.4564,3.4638,3.4639,0,0,0,0,0,0,3.4429,3.4435,3.4489,3.4491,3.4456,3.4484,3.4488,3.4501,3.4523,3.4526,3.4509,3.4509,3.4543,3.4547,3.4551,3.4583,3.4562,3.4564,3.4565,3.4637,3.4638,3.4639,0,0,0,0,0,0,3.4427,3.4434,3.4487,3.4463,3.447,3.4486,3.45,3.4502,3.4511,3.4527,3.453,3.4516,3.4543,3.4548,3.4572,3.4584,3.4565,3.4567,3.4637,3.4638,3.4639,3.4646,0,0,0,0,0,0,3.4425,3.4433,3.4443,3.4464,3.4471,3.4509,3.4501,3.4503,3.4515,3.4515,3.4534,3.4536,3.4543,3.4569,3.4574,3.4586,3.4568,3.4636,3.4637,3.4638,3.4645,3.4647,3.4649,0,0,0,0,0,3.4423,3.4443,3.4444,3.445,3.4485,3.451,3.4514,3.4522,3.4516,3.4526,3.4536,3.4536,3.4581,3.4572,3.4577,3.459,3.4635,3.4637,3.4638,3.4644,3.4647,3.4649,0,0,0,0,0,0,3.4423,3.4446,3.4447,3.4475,3.4491,3.451,3.4523,3.4525,3.4541,3.454,3.4548,3.4553,3.4577,3.4586,3.4574,3.4616,3.4607,3.461,3.461,3.4613,3.4615,3.4613,3.457,0,0,0,0,0,3.4427,3.4446,3.4464,3.4487,3.4495,3.4508,3.4519,3.4523,3.4539,3.4546,3.4558,3.4572,3.459,3.4602,3.4619,3.4646,3.465,3.4657,3.466,3.4661,3.4664,3.468,3.4683,3.4645,3.4645,3.4645,0,0,3.4434,3.4449,3.446,3.4488,3.45,3.4519,3.4513,3.4533,3.4547,3.4548,3.4573,3.4582,3.4599,3.4625,3.4637,3.4633,3.4676,3.4664,3.4665,3.4667,3.4682,3.4685,3.4689,3.4646,3.4646,3.4645,0,0,3.4457,3.447,3.4491,3.4504,3.4523,3.4532,3.4537,3.4556,3.4562,3.4587,3.4589,3.4605,3.4635,3.4647,3.4658,3.4685,3.4686,3.4691,3.4703,3.4718,3.4721,3.4724,3.4734,3.4738,3.4693,3.4693,3.4693,0,3.4464,3.4493,3.4501,3.4522,3.4534,3.4537,3.4558,3.4569,3.4593,3.4601,3.4596,3.4635,3.4646,3.4676,3.4683,3.469,3.4696,3.4689,3.472,3.4723,3.4725,3.4736,3.474,3.4694,3.4693,3.4693,3.4693,0,3.45,3.4521,3.4535,3.4559,3.4573,3.4593,3.4604,3.4616,3.462,3.4628,3.4653,3.4667,3.4688,3.4695,3.4698,3.4725,3.4722,3.4718,3.471,3.4729,3.4739,3.4743,3.4694,3.4694,3.4694,3.4694,0,0,3.4526,3.4554,3.456,3.4571,3.4592,3.4608,3.4628,3.4649,3.466,3.4675,3.4693,3.4718,3.4716,3.4727,3.4731,3.4744,3.4767,3.4739,3.474,3.4745,3.4798,3.4801,3.4805,3.4766,3.4767,3.4768,3.4797,0,3.4552,3.459,3.4598,3.463,3.4649,3.4652,3.467,3.4684,3.4693,3.4709,3.4718,3.4737,3.4731,3.4738,3.4751,3.4761,3.4777,3.4759,3.4783,3.4784,3.478,3.481,3.4814,3.4841,3.48,3.4801,3.4801,0,3.4588,3.4606,3.4641,3.4661,3.4669,3.4685,3.4705,3.4721,3.4737,3.4742,3.4755,3.4758,3.4779,3.4769,3.4798,3.4785,3.4795,3.4801,3.4802,3.4806,3.4795,3.4816,3.4849,3.4854,3.4807,3.4807,3.4807,0,3.4605,3.4637,3.4663,3.4672,3.4695,3.4706,3.4716,3.4732,3.4744,3.4761,3.4769,3.4787,3.4798,3.4812,3.482,3.4811,3.4848,3.4838,3.4853,3.4853,3.4862,3.4861,3.4898,3.4866,3.4866,3.4866,3.4866,0,3.4634,3.4655,3.467,3.4686,3.471,3.4718,3.4741,3.4751,3.4765,3.4782,3.4784,3.48,3.4809,3.4826,3.4832,3.4855,3.4859,3.4864,3.4866,3.4865,3.4864,3.4872,3.4871,3.4867,3.4867,3.4867,3.4866,0,3.4657,3.4668,3.4696,3.4715,3.4721,3.4737,3.4754,3.4769,3.4777,3.4799,3.4804,3.4817,3.4837,3.4846,3.487,3.4874,3.4901,3.49,3.4896,3.4897,3.4911,3.491,3.4956,3.4963,3.4925,3.4925,3.4925,0,3.4676,3.4692,3.4714,3.4726,3.4737,3.4756,3.4769,3.4777,3.479,3.481,3.4823,3.4843,3.486,3.4891,3.4902,3.4921,3.4922,3.4936,3.4925,3.4923,3.4923,3.4923,3.4925,3.4939,3.4939,3.494,3.494,0,3.4708,3.4713,3.4731,3.4752,3.4767,3.4784,3.48,3.4809,3.482,3.4834,3.4855,3.4868,3.4893,3.4914,3.4933,3.4942,3.4943,3.4943,3.4948,3.4948,3.4945,3.4948,3.4903,3.4942,3.4942,3.4942,3.4942,3.4942,3.473,3.4745,3.4763,3.4784,3.4797,3.4812,3.4827,3.4838,3.4856,3.4878,3.4881,3.4904,3.4919,3.4946,3.4956,3.4973,3.497,3.4976,3.4978,3.498,3.4981,3.4941,3.4976,3.4976,3.4976,3.4976,3.4976,0,3.4764,3.4775,3.4794,3.4817,3.4833,3.4833,3.485,3.4864,3.4884,3.4899,3.4916,3.494,3.496,3.4972,3.4992,3.5003,3.5004,3.5008,3.5008,3.501,3.4983,3.4977,3.5007,3.5007,3.5007,3.5007,3.5007,3.5007,3.4783,3.4809,3.4816,3.4848,3.4859,3.4882,3.4893,3.4906,3.4918,3.4946,3.4962,3.4971,3.4985,3.5005,3.5023,3.5026,3.5034,3.5038,3.5041,3.5015,3.5012,3.5009,3.5004,3.504,3.504,3.5068,3.5068,3.5068]}]]